This demonstration page uses our WeatherBlox Daily Observations layout. Learn more.

40.92945, -100.16068

Hourly Observations for May 23, 2016

Temp ( °F °C ) Dew Point ( °F °C ) Humidity (%) Winds ( mph kmh ) Pressure ( in mb ) Visibility ( mi km ) Precip ( " mm )
12:15 am 00:15 Mostly Cloudy 70 21 65 18.2 84 84 SSE 22 35 29.59 1002 10 16.0934 N/A
12:35 am 00:35 Partly Cloudy 70 20.9 65 18.2 85 85 SSE 20 31 29.59 1002 10 16.0934 N/A
12:55 am 00:55 Partly Cloudy 69 20.8 65 18.1 85 85 SW 17 28 29.68 1005 10 16.0934 N/A
1:15 am 01:15 Cloudy with Thunderstorms 69 20.7 61 16.2 76 76 NW 21 33 29.68 1005 10 16.0934 N/A
1:35 am 01:35 Cloudy with Heavy Thunderstorms 60 15.5 56 13.5 88 88 NW 17 28 29.71 1006 2.5 4.02335 0.21 5.334
1:55 am 01:55 Cloudy with Rain 59 15 56 13.3 90 90 NW 8 13 29.74 1007 7 11.26538 0.31 7.874
2:15 am 02:15 Mostly Cloudy with Thunderstorms 58 14.5 55 12.5 88 88 NNW 18 30 29.74 1007 10 16.0934 N/A
2:35 am 02:35 Cloudy 57 14.1 52 11.3 83 83 WNW 5 7 29.8 1009 10 16.0934 N/A
2:55 am 02:55 Cloudy with Thunderstorms 57 13.9 52 11.2 84 84 WNW 16 26 29.83 1010 10 16.0934 0.01 0.254
3:15 am 03:15 Cloudy with Light Thunderstorms 55 12.8 52 11 89 89 NW 10 17 29.8 1009 7 11.26538 0.07 1.778
3:35 am 03:35 Cloudy with Light Thunderstorms 56 13.2 52 11 87 87 Calm 29.83 1010 10 16.0934 0.08 2.032
3:55 am 03:55 Mostly Cloudy with Nearby Thunderstorms 56 13.3 51 10.6 84 84 N 3 6 29.8 1009 10 16.0934 0.09 2.286
4:15 am 04:15 Mostly Cloudy 56 13.5 51 10.5 82 82 NNW 13 20 29.8 1009 10 16.0934 N/A
4:35 am 04:35 Mostly Cloudy with Light Rain 56 13.2 52 10.9 86 86 WNW 17 28 29.83 1010 10 16.0934 N/A
4:55 am 04:55 Partly Cloudy 55 12.8 51 10.5 86 86 N 8 13 29.77 1008 10 16.0934 N/A
5:15 am 05:15 Clear 55 12.6 50 10.1 85 85 Calm 29.77 1008 10 16.0934 N/A
5:35 am 05:35 Clear 54 12.4 49 9.6 83 83 WNW 3 6 29.8 1009 10 16.0934 N/A
5:55 am 05:55 Clear 52 11 49 9.3 89 89 ESE 5 7 29.83 1010 10 16.0934 N/A
6:15 am 06:15 Sunny 54 12 50 9.8 87 87 ESE 5 7 29.77 1008 10 16.0934 N/A
6:35 am 06:35 Sunny 54 12.1 50 10 87 87 SE 6 9 29.77 1008 10 16.0934 N/A
6:55 am 06:55 Partly Cloudy 54 12.2 51 10.3 88 88 S 3 6 29.8 1009 10 16.0934 0 0
7:15 am 07:15 Sunny 54 12.4 51 10.3 87 87 Calm 29.77 1008 10 16.0934 N/A
7:35 am 07:35 Sunny 54 12.1 51 10.6 91 91 NW 8 13 29.8 1009 10 16.0934 N/A
7:55 am 07:55 Sunny 54 12.4 51 10.7 89 89 NW 13 20 29.8 1009 10 16.0934 N/A
8:15 am 08:15 Sunny 55 13 51 10.7 86 86 NW 6 9 29.83 1010 10 16.0934 N/A
8:35 am 08:35 Sunny 58 14.2 52 11.3 83 83 WNW 9 15 29.83 1010 10 16.0934 N/A
8:55 am 08:55 Sunny 59 15 53 11.4 79 79 NW 9 15 29.8 1009 10 16.0934 N/A
9:15 am 09:15 Sunny 60 15.5 53 11.4 77 77 NW 7 11 29.8 1009 10 16.0934 N/A
9:35 am 09:35 Sunny 61 15.9 53 11.9 77 77 WNW 8 13 29.8 1009 10 16.0934 N/A
9:55 am 09:55 Sunny 63 17.1 54 12 72 72 WNW 7 11 29.8 1009 10 16.0934 N/A
10:15 am 10:15 Sunny 64 17.5 53 11.4 68 68 Calm 29.8 1009 10 16.0934 N/A
10:35 am 10:35 Sunny 64 17.9 51 10.7 63 63 Calm 29.8 1009 10 16.0934 N/A
10:55 am 10:55 Sunny 65 18.3 53 11.6 65 65 Calm 29.8 1009 10 16.0934 N/A
11:15 am 11:15 Sunny 66 19.1 54 12.4 65 65 NW 3 6 29.74 1007 10 16.0934 N/A
11:35 am 11:35 Sunny 67 19.5 54 12.4 64 64 Calm 29.74 1007 10 16.0934 N/A
11:55 am 11:55 Sunny 68 20 55 12.8 63 63 WSW 5 7 29.74 1007 7 11.26538 N/A
12:15 pm 12:15 Sunny 69 20.3 55 12.9 63 63 WNW 5 7 29.74 1007 10 16.0934 N/A
12:35 pm 12:35 Sunny 69 20.8 54 12.2 58 58 Calm 29.74 1007 10 16.0934 N/A
12:55 pm 12:55 Sunny 70 21.1 54 12.2 57 57 W 6 9 29.74 1007 10 16.0934 N/A
1:15 pm 13:15 Sunny 71 21.8 53 11.8 53 53 Calm 29.71 1006 10 16.0934 N/A
1:35 pm 13:35 Sunny 71 21.8 53 11.6 52 52 WSW 6 9 29.71 1006 10 16.0934 N/A
1:55 pm 13:55 Sunny 72 22.3 55 12.5 54 54 Calm 29.71 1006 10 16.0934 N/A
2:15 pm 14:15 Sunny 73 22.5 55 12.7 54 54 Calm 29.68 1005 10 16.0934 N/A
2:35 pm 14:35 Sunny 74 23.1 55 13 53 53 W 5 7 29.68 1005 10 16.0934 N/A
2:55 pm 14:55 Sunny 74 23.6 55 12.9 51 51 WSW 6 9 29.68 1005 10 16.0934 N/A
3:15 pm 15:15 Sunny 75 23.7 53 11.9 48 48 W 5 7 29.68 1005 10 16.0934 N/A
3:35 pm 15:35 Sunny 75 24 51 10.8 44 44 Calm 29.65 1004 10 16.0934 N/A
3:55 pm 15:55 Sunny 76 24.4 53 11.6 45 45 Calm 29.65 1004 10 16.0934 N/A
4:15 pm 16:15 Sunny 76 24.5 51 10.4 41 41 Calm 29.62 1003 10 16.0934 N/A
4:35 pm 16:35 Sunny 76 24.5 52 11.3 44 44 Calm 29.62 1003 10 16.0934 N/A
4:55 pm 16:55 Sunny 77 25 52 11.2 42 42 Calm 29.62 1003 10 16.0934 N/A
5:15 pm 17:15 Sunny 77 24.8 53 11.8 44 44 WNW 3 6 29.62 1003 10 16.0934 N/A
5:35 pm 17:35 Sunny 77 25.1 54 12 44 44 Calm 29.62 1003 10 16.0934 N/A
5:55 pm 17:55 Sunny 77 25 50 9.9 39 39 Calm 29.62 1003 10 16.0934 N/A
6:15 pm 18:15 Partly Cloudy 78 25.5 48 8.9 35 35 Calm 29.62 1003 10 16.0934 N/A
6:35 pm 18:35 Partly Cloudy 76 24.5 51 10.5 41 41 ENE 3 6 29.62 1003 10 16.0934 N/A
6:55 pm 18:55 Partly Cloudy 76 24.5 53 11.8 45 45 Calm 29.62 1003 10 16.0934 N/A
7:15 pm 19:15 Sunny 76 24.5 49 9.3 38 38 Calm 29.62 1003 10 16.0934 N/A
7:35 pm 19:35 Sunny 77 24.9 50 10.1 39 39 Calm 29.62 1003 10 16.0934 N/A
7:55 pm 19:55 Sunny 76 24.4 54 12 46 46 Calm 29.65 1004 10 16.0934 N/A
8:15 pm 20:15 Sunny 76 24.5 43 6.1 31 31 Calm 29.62 1003 10 16.0934 N/A
8:35 pm 20:35 Sunny 74 23.4 42 5.7 32 32 Calm 29.65 1004 10 16.0934 N/A
8:55 pm 20:55 Sunny 71 21.9 54 12.1 54 54 Calm 29.65 1004 10 16.0934 N/A
9:15 pm 21:15 Clear 71 21.6 49 9.7 47 47 Calm 29.65 1004 10 16.0934 N/A
9:35 pm 21:35 Clear 69 20.7 50 9.9 50 50 Calm 29.68 1005 10 16.0934 N/A
9:55 pm 21:55 Clear 66 19 53 11.9 64 64 Calm 29.71 1006 10 16.0934 N/A
10:15 pm 22:15 Clear 64 17.6 52 10.9 65 65 Calm 29.74 1007 10 16.0934 N/A
10:35 pm 22:35 Clear 62 16.9 52 11 68 68 Calm 29.77 1008 10 16.0934 N/A
10:55 pm 22:55 Clear 62 16.9 56 13.1 78 78 Calm 29.77 1008 10 16.0934 N/A
11:15 pm 23:15 Clear 58 14.6 53 11.4 81 81 NNW 7 11 29.8 1009 10 16.0934 N/A
11:35 pm 23:35 Clear 59 14.8 53 11.7 82 82 Calm 29.77 1008 10 16.0934 N/A
11:55 pm 23:55 Clear 58 14.3 53 11.7 85 85 Calm 29.8 1009 10 16.0934 N/A

Powered by AerisWeather